This is the latest recevied weather packets stored in our database for station/object IZ5MMH-1. If no packets are shown the sender has not sent any weather packets the latest 10 day(s).
| Time | Temp. | Humidity | Pressure | Rain* | Wind** | Luminosity | Snow |
|---|---|---|---|---|---|---|---|
| 1787422694 | 25° C | 42% | 1015.8 hPa | - | - | - | - |
| 1787422094 | 25.56° C | 42% | 1015.7 hPa | - | - | - | - |
| 1787421495 | 26.11° C | 40% | 1015.6 hPa | - | - | - | - |
| 1787420893 | 26.67° C | 39% | 1015.6 hPa | - | - | - | - |
| 1787420293 | 27.22° C | 39% | 1015.5 hPa | - | - | - | - |
| 1787419694 | 27.78° C | 37% | 1015.6 hPa | - | - | - | - |
| 1787419094 | 27.78° C | 37% | 1015.6 hPa | - | - | - | - |
| 1787418494 | 28.33° C | 36% | 1015.6 hPa | - | - | - | - |
| 1787417896 | 28.89° C | 36% | 1015.5 hPa | - | - | - | - |
| 1787417294 | 29.44° C | 35% | 1015.4 hPa | - | - | - | - |
| 1787416694 | 29.44° C | 35% | 1015.4 hPa | - | - | - | - |
| 1787416093 | 30° C | 35% | 1015.5 hPa | - | - | - | - |
| 1787415494 | 30° C | 35% | 1015.4 hPa | - | - | - | - |
| 1787414895 | 30° C | 36% | 1015.4 hPa | - | - | - | - |
| 1787414294 | 30.56° C | 35% | 1015.2 hPa | - | - | - | - |
| 1787413693 | 30.56° C | 38% | 1015.3 hPa | - | - | - | - |
| 1787413094 | 30.56° C | 36% | 1015.3 hPa | - | - | - | - |
| 1787412494 | 31.11° C | 36% | 1015.1 hPa | - | - | - | - |
| 1787411893 | 31.11° C | 38% | 1015.2 hPa | - | - | - | - |
| 1787411293 | 31.11° C | 38% | 1015.1 hPa | - | - | - | - |
| 1787410693 | 31.11° C | 38% | 1015 hPa | - | - | - | - |
| 1787410093 | 31.11° C | 37% | 1015.1 hPa | - | - | - | - |
| 1787409494 | 31.11° C | 37% | 1015 hPa | - | - | - | - |
| 1787408893 | 31.11° C | 37% | 1015 hPa | - | - | - | - |
| 1787408293 | 31.11° C | 37% | 1015 hPa | - | - | - | - |
* Rain since midnight (hover to see other rain measurements)
** Current wind speed in m/s (hover to see current wind gust speed)